Temperature
20 20 21 21 21 21 20 19 18 19 19 19 19 19 20 21 21 21 21 21 21 21 21 20 20 19 19 18 17 17 16 16 15 15 14 14 14 14 13 13 13 13 13 13
19 21 20 20 21 21 21 20 19 19 19 19 20 20 20 20 20 20 20 21 21 21 20 20 20 19 19 18 18 17 16 16 16 15 15 14 14 14 14 13 13 13 13 13
17 18 20 19 20 20 19 19 19 18 19 19 19 19 19 19 19 20 20 20 20 20 20 20 20 20 19 19 18 17 17 16 16 15 15 15 14 14 14 14 14 14 13 13
16 18 19 19 19 20 19 18 18 18 18 18 19 20 20 19 19 19 20 20 20 20 20 20 20 20 19 19 18 18 17 17 16 16 15 15 15 14 14 14 14 14 14 14
15 17 18 19 19 19 19 17 17 17 17 18 19 19 19 19 19 19 20 20 20 20 20 20 20 20 19 19 18 18 17 17 17 16 16 15 15 15 14 14 14 14 14 14
15 17 17 17 18 19 18 16 16 16 16 17 17 15 16 18 19 19 19 19 20 20 20 20 20 19 19 19 18 18 18 18 17 16 16 16 15 15 15 14 14 14 14 14
15 16 16 16 17 18 16 15 16 16 16 16 15 15 17 18 18 18 18 19 19 19 19 19 19 19 18 18 18 18 18 18 17 17 16 16 16 15 15 14 14 14 14 14
13 14 15 16 16 15 14 15 15 16 16 16 16 16 16 17 17 17 17 18 18 18 18 18 19 18 18 18 18 18 18 17 17 17 16 16 16 15 15 14 14 14 14 14
13 14 14 15 15 15 15 15 15 15 15 15 15 15 15 15 16 16 16 16 16 17 17 17 18 18 18 18 18 17 17 17 17 17 16 16 16 15 15 15 14 14 14 14
13 13 14 14 14 14 14 14 14 14 14 14 14 14 14 14 14 15 15 15 15 15 16 16 16 17 17 17 17 17 17 17 17 16 16 16 16 15 15 15 14 14 14 14
11 12 13 13 13 13 13 13 13 13 13 13 13 13 13 13 13 13 14 14 14 14 14 15 15 16 16 16 16 16 16 16 16 16 16 16 16 16 15 15 15 15 14 14
11 12 11 12 12 12 12 12 12 12 12 12 12 12 12 12 12 12 13 13 13 13 13 14 14 15 15 15 15 15 16 16 16 16 16 16 15 15 15 15 15 14 14 14
13 13 12 12 12 12 12 12 12 12 11 11 11 11 11 12 12 12 12 12 12 12 12 13 13 14 14 14 15 15 15 15 15 15 15 15 15 15 15 15 14 14 13 13
13 12 11 11 11 11 11 11 11 11 11 11 11 11 11 11 11 11 11 11 11 11 12 12 12 13 13 13 14 14 14 15 15 15 15 15 15 15 15 15 14 14 13 13
12 12 11 11 11 11 10 10 10 10 10 10 10 10 10 10 10 11 11 11 11 11 11 11 12 12 12 13 13 13 14 14 14 15 15 15 15 15 14 14 14 14 13 12
11 11 11 10 10 10 10 10 10 9 9 9 10 10 10 10 10 10 10 10 10 10 10 11 11 11 11 12 12 12 13 13 14 14 14 14 14 14 14 14 13 13 13 13
11 10 10 10 10 10 9 9 9 9 9 9 9 9 9 9 9 10 10 10 10 10 10 10 10 10 11 11 11 12 12 13 13 13 13 14 14 14 14 14 13 13 13 12
11 10 10 10 9 9 9 9 9 9 9 9 9 9 9 9 9 9 9 9 9 9 9 9 10 10 10 10 11 11 11 12 12 12 13 13 13 13 13 13 13 13 12 12
10 10 9 9 9 9 9 8 8 8 8 8 8 8 8 8 8 8 8 8 8 8 9 9 9 9 9 10 10 10 11 11 11 12 12 12 12 12 13 13 13 12 12 11
9 9 9 9 8 8 8 8 8 8 8 8 8 8 8 8 8 8 8 8 8 8 8 8 8 8 9 9 9 10 10 10 11 11 11 11 12 12 12 12 12 12 11 11
9 8 8 8 8 8 8 7 7 7 7 7 7 7 7 7 7 7 7 7 7 7 7 7 8 8 8 8 8 9 9 9 10 10 10 11 11 11 11 11 11 11 11 11
8 8 8 8 8 7 7 7 7 7 7 7 7 7 7 7 7 7 7 7 7 7 7 7 7 7 7 7 8 8 8 9 9 10 10 10 10 10 11 11 11 11 11 10
8 8 7 7 7 7 7 7 7 7 6 6 6 6 6 6 6 6 6 7 7 6 6 6 7 7 7 7 7 7 8 8 9 9 9 9 10 10 10 10 10 10 10 10
7 7 7 7 7 6 6 6 6 6 6 6 6 6 6 6 6 6 6 6 6 6 6 6 6 6 6 7 7 7 7 8 8 8 9 9 9 9 9 10 10 10 9 9
7 7 7 6 6 6 6 6 6 6 6 5 6 6 6 6 6 6 6 6 6 6 6 6 6 6 6 6 6 7 7 7 8 8 8 8 8 9 9 9 9 9 9 8
6 6 6 6 6 6 6 5 5 5 5 5 5 5 5 5 5 5 5 5 5 5 5 5 5 5 5 6 6 6 6 7 7 7 7 8 8 8 8 8 8 8 8 8
6 6 6 6 6 6 5 5 5 5 5 5 5 5 5 5 5 5 5 5 5 5 5 5 5 5 5 5 5 5 6 6 6 7 7 7 7 7 7 7 7 7 7 7
Wind_Speed
5 5 2 3 5 4 3 6 6 6 5 7 7 5 3 2 1 1 1 2 5 8 9 9 10 10 10 10 10 10 9 9 9 8 6 6 5 4 3 3 3 2 2 1
5 5 5 5 5 4 3 2 3 1 3 6 5 3 5 5 3 2 2 3 5 6 7 9 11 11 11 11 11 10 11 11 9 8 7 6 6 5 4 3 3 2 2 2
4 7 5 5 4 1 3 3 1 1 4 5 5 6 5 5 5 4 4 4 4 6 8 9 10 11 13 13 11 11 11 10 9 9 8 8 7 6 5 5 3 3 3 2
1 4 2 5 3 3 6 7 6 3 5 5 3 0 3 5 5 6 6 5 5 5 6 7 8 9 10 10 11 12 11 11 10 10 9 8 7 7 6 5 4 4 4 4
2 1 4 5 5 3 1 4 8 6 8 10 7 4 6 8 7 6 6 6 6 5 5 5 6 7 8 10 11 12 12 12 12 12 11 9 9 8 6 5 5 4 4 4
3 2 3 5 10 6 5 3 9 8 8 9 8 6 7 11 10 9 9 7 6 5 3 3 4 5 7 10 11 13 14 14 13 12 12 12 11 9 6 6 6 5 4 4
2 3 4 5 9 6 4 4 7 7 7 6 3 4 8 10 10 9 8 8 7 6 4 5 3 3 7 8 12 13 12 11 11 12 13 12 10 7 6 6 6 5 5 4
1 2 4 8 6 4 2 3 4 5 6 6 6 8 9 10 10 11 11 9 8 7 7 6 3 3 6 9 10 8 8 10 12 12 12 10 9 8 7 8 7 6 4 3
4 4 1 3 3 2 1 2 4 5 6 6 7 8 9 9 9 9 9 9 8 7 8 7 5 4 8 9 7 6 7 10 11 12 11 10 11 10 7 7 7 6 5 5
1 2 2 3 4 4 3 3 4 4 5 6 6 8 9 9 10 10 9 9 8 9 9 9 8 7 8 7 6 6 8 9 9 10 10 9 9 9 9 9 8 7 7 6
2 4 3 3 4 4 5 5 5 6 6 6 6 7 7 8 9 10 10 9 8 8 9 11 10 9 8 6 5 7 8 8 8 9 10 9 8 7 9 9 10 10 8 8
5 5 3 5 5 4 4 6 7 7 7 7 6 7 7 8 8 9 10 9 10 10 10 11 11 11 9 7 6 8 7 7 7 7 7 8 8 4 2 4 9 12 12 11
4 3 3 3 3 4 4 6 6 6 7 8 8 8 8 8 8 9 10 10 10 11 11 12 11 11 10 8 7 9 9 8 7 7 8 9 9 10 7 2 3 6 11 13
3 1 1 2 3 4 4 6 6 6 7 7 8 9 9 9 9 10 11 11 11 11 11 11 12 12 11 9 8 9 9 10 9 8 9 10 10 10 10 10 7 4 5 10
2 2 3 3 3 4 4 5 6 8 9 9 8 9 10 11 12 12 11 11 11 11 12 12 13 13 11 9 9 10 9 8 8 8 8 9 9 9 10 10 9 7 5 6
3 2 2 2 3 4 5 5 6 8 9 10 10 11 12 12 12 12 11 11 11 12 13 13 13 13 11 10 9 8 8 11 10 8 8 8 9 9 10 11 11 10 10 9
3 3 3 4 5 6 6 7 7 9 9 11 11 12 12 12 12 12 12 11 11 12 12 12 13 12 11 10 9 8 7 8 11 8 9 10 10 10 11 12 12 11 10 11
6 6 6 6 6 7 7 8 9 10 10 11 12 12 12 12 13 13 13 12 13 13 12 11 11 12 12 11 9 7 7 7 8 9 9 9 10 10 10 11 12 12 9 10
3 4 5 5 6 6 7 9 9 9 10 11 12 12 12 12 12 13 12 12 13 14 13 12 17 13 11 11 11 7 7 7 8 8 8 10 11 9 10 11 12 11 11 11
4 4 5 6 6 6 8 9 10 10 11 11 11 12 12 12 12 12 12 11 10 11 12 14 13 11 11 10 10 7 7 8 8 8 8 9 10 11 10 11 12 12 12 12
6 6 6 7 8 8 9 9 10 11 12 11 11 12 12 12 12 11 10 12 12 12 12 16 11 10 10 11 11 8 8 8 8 9 9 9 10 11 10 11 12 13 12 12
6 6 8 8 8 9 9 9 9 11 12 11 12 11 11 12 12 11 10 10 11 16 12 9 9 13 15 15 8 8 9 9 8 8 9 9 10 11 11 11 12 12 12 12
7 7 8 9 9 10 10 10 10 10 11 12 12 11 11 11 9 9 11 9 9 16 13 9 14 20 21 11 8 9 9 9 9 9 9 9 10 10 10 12 11 11 12 12
8 8 9 9 8 8 10 11 10 9 10 11 11 11 10 9 9 8 9 14 17 18 11 13 19 21 18 9 8 9 9 9 8 8 8 8 8 8 9 10 11 11 11 13
8 8 8 8 8 8 10 11 10 10 10 9 11 11 9 8 8 10 10 10 15 16 10 14 20 19 12 8 8 8 8 8 8 7 7 7 8 8 9 10 11 11 11 12
8 8 8 8 8 8 8 7 8 8 8 9 9 8 8 8 9 9 8 10 11 14 11 9 10 11 8 8 8 7 7 7 6 6 7 7 8 8 9 10 12 11 11 11
8 7 7 7 7 7 7 7 8 9 8 9 10 9 9 9 9 9 9 9 9 9 9 8 8 8 8 7 7 6 5 4 4 5 6 7 7 8 9 11 10 10 10 11
Wind_Direction
243 257 267 280 290 278 221 205 204 242 252 287 293 287 300 316 344 26 248 223 213 214 214 209 204 201 197 195 191 184 180 187 197 198 196 194 194 197 197 193 192 186 169 177
330 321 338 328 315 301 282 255 222 260 305 298 309 4 24 17 17 353 283 257 238 230 221 215 212 207 200 198 194 185 186 195 197 190 189 193 197 196 195 202 199 179 181 181
302 315 8 341 315 27 37 6 93 90 286 319 17 39 36 20 7 328 290 275 254 239 231 226 219 209 204 202 190 187 193 196 193 189 191 198 199 191 197 202 195 193 201 188
282 7 290 247 294 98 87 41 32 30 350 355 341 254 48 24 3 337 318 299 281 264 253 241 224 214 206 192 187 192 196 197 194 191 195 195 192 197 201 197 198 202 206 200
142 225 284 313 334 326 147 37 5 10 4 356 343 10 0 354 344 326 311 294 275 257 248 250 234 215 198 194 193 195 200 201 198 193 193 193 197 203 200 192 200 205 202 197
137 170 234 291 319 326 96 40 348 5 6 0 19 15 321 327 332 330 328 321 312 299 280 281 262 212 193 201 198 205 207 205 200 194 193 196 201 201 195 192 199 198 202 202
177 215 248 309 323 23 76 285 326 354 2 9 8 273 289 319 335 336 331 326 329 324 298 274 267 206 207 208 212 215 211 203 197 196 197 198 195 192 188 189 188 192 199 206
129 202 264 337 21 58 244 288 334 352 355 352 332 327 332 336 337 340 341 338 337 330 312 298 274 218 226 228 229 220 204 200 199 198 197 195 187 188 183 179 182 191 190 198
191 208 259 14 66 19 13 347 339 343 340 344 338 333 333 333 332 332 333 332 329 320 314 313 293 246 239 245 235 217 205 205 203 197 196 187 185 186 181 181 186 192 189 195
345 270 340 29 37 20 16 357 332 333 333 342 336 332 333 335 335 331 329 327 327 325 319 313 302 282 262 258 227 209 212 209 202 195 193 189 187 186 186 189 191 193 192 194
274 282 323 358 360 346 344 345 341 338 337 337 336 330 327 326 328 326 322 320 320 318 310 308 306 295 288 274 232 217 216 212 204 198 192 189 187 191 193 198 195 191 195 187
235 239 227 271 297 317 337 340 339 339 341 339 335 325 324 320 318 320 319 318 317 313 309 307 307 300 295 279 240 223 221 215 207 198 191 184 175 165 154 191 199 196 188 179
215 239 229 260 302 327 334 333 333 335 331 330 329 322 319 314 311 314 315 314 310 307 306 305 306 302 298 287 257 233 225 218 210 201 193 186 182 179 174 142 126 176 182 177
224 201 264 284 295 316 325 327 329 330 327 322 319 319 318 313 311 313 311 308 304 305 306 304 302 302 301 293 270 248 234 221 211 205 198 193 191 189 182 176 175 173 178 176
225 189 225 260 290 313 320 332 336 328 321 319 316 316 315 314 309 306 306 308 308 306 306 307 303 301 304 298 280 261 242 228 218 211 201 196 191 187 185 182 177 167 155 167
219 252 256 271 295 306 316 322 319 313 311 310 310 307 305 302 301 300 302 307 309 305 304 303 299 299 303 296 286 274 250 233 218 211 202 194 191 188 185 183 180 177 179 175
206 247 253 268 281 291 295 295 295 297 301 302 301 300 302 304 304 303 302 301 300 297 296 294 294 299 300 292 283 278 263 237 218 211 204 197 195 195 190 185 185 186 187 182
215 226 235 245 264 284 293 296 297 297 295 296 300 302 301 301 300 299 301 304 306 305 300 294 295 301 299 294 284 277 265 243 223 215 208 200 198 198 193 187 186 183 177 178
242 251 256 259 265 275 283 289 293 292 293 296 300 300 297 295 295 296 298 303 305 306 304 303 306 304 295 295 293 277 269 252 234 221 212 200 196 195 193 188 183 181 177 174
256 260 265 273 278 282 289 292 293 294 294 295 297 299 297 296 297 298 297 293 288 289 294 299 302 295 293 289 294 281 268 251 236 224 213 204 196 195 194 189 183 179 179 179
268 273 277 282 286 287 286 289 295 296 295 293 292 292 292 293 296 296 296 298 296 294 299 301 301 292 291 291 289 280 269 253 238 225 214 207 199 194 193 191 184 181 180 178
268 270 274 280 284 287 285 285 289 295 296 293 291 290 292 295 297 294 286 283 290 300 304 294 291 294 298 297 278 274 266 252 239 227 216 208 201 195 192 189 184 181 178 175
273 270 272 274 276 282 287 288 287 292 295 295 292 289 286 286 287 288 295 292 292 299 304 292 298 302 302 296 274 268 263 250 238 227 217 210 202 195 191 185 179 174 172 171
278 278 277 277 282 288 292 290 289 290 290 291 288 285 285 289 290 281 277 294 303 302 297 294 302 306 307 295 277 268 259 249 237 226 214 204 196 190 187 180 174 171 170 167
276 276 278 280 283 283 283 287 291 290 292 293 292 290 286 278 278 288 291 290 297 303 299 301 305 308 304 287 280 270 260 250 238 221 207 195 186 183 180 173 169 168 168 168
272 273 272 269 270 275 280 282 284 287 291 294 295 293 293 290 285 287 290 291 291 300 302 297 297 299 295 288 283 278 267 252 238 218 199 188 180 177 171 166 161 162 163 162
272 271 273 278 278 272 272 275 280 284 285 287 292 295 295 294 292 292 292 295 297 297 298 296 294 295 296 293 289 286 274 252 225 202 186 177 175 171 166 160 158 156 156 157
Height
1495 1491 1489 1489 1488 1486 1490 1495 1502 1496 1491 1484 1478 1475 1472 1470 1468 1467 1467 1467 1467 1467 1468 1469 1470 1471 1472 1473 1475 1476 1477 1478 1479 1481 1482 1483 1483 1484 1484 1484 1484 1483 1483 1483
1496 1489 1489 1490 1486 1485 1485 1486 1489 1488 1488 1479 1476 1473 1471 1470 1469 1468 1467 1466 1466 1466 1466 1466 1467 1467 1468 1470 1471 1473 1474 1475 1477 1478 1479 1480 1481 1482 1482 1482 1482 1482 1482 1482
1506 1497 1493 1499 1489 1487 1488 1487 1487 1492 1488 1479 1476 1474 1474 1472 1470 1469 1467 1466 1465 1464 1463 1463 1463 1463 1464 1466 1467 1469 1470 1472 1473 1475 1476 1477 1478 1479 1480 1480 1480 1481 1481 1481
1509 1504 1508 1499 1484 1484 1487 1489 1487 1486 1483 1480 1477 1475 1473 1472 1470 1468 1466 1464 1463 1461 1461 1460 1460 1460 1461 1462 1464 1465 1466 1468 1470 1471 1473 1474 1475 1476 1477 1478 1478 1479 1479 1479
1512 1510 1505 1493 1485 1484 1486 1492 1489 1487 1483 1480 1476 1473 1472 1472 1470 1469 1466 1463 1462 1460 1459 1458 1457 1457 1457 1458 1459 1461 1462 1463 1465 1467 1469 1470 1472 1473 1474 1475 1476 1476 1477 1477
1509 1509 1511 1501 1486 1481 1483 1496 1491 1488 1485 1482 1477 1481 1477 1472 1470 1467 1464 1462 1460 1458 1457 1455 1454 1454 1454 1454 1455 1456 1457 1459 1461 1463 1464 1466 1468 1469 1471 1472 1473 1474 1474 1475
1509 1510 1504 1495 1487 1484 1499 1503 1493 1489 1486 1484 1482 1482 1478 1472 1469 1466 1463 1461 1458 1456 1454 1453 1452 1451 1450 1450 1451 1452 1453 1455 1456 1458 1460 1462 1464 1465 1467 1468 1469 1470 1471 1471
1511 1512 1509 1494 1490 1496 1499 1494 1492 1489 1486 1484 1481 1478 1475 1471 1468 1464 1461 1458 1456 1453 1451 1450 1449 1448 1447 1446 1447 1448 1448 1449 1451 1453 1455 1457 1459 1460 1462 1464 1465 1466 1467 1467
1505 1506 1500 1496 1495 1495 1494 1492 1490 1488 1485 1483 1479 1476 1473 1469 1466 1463 1460 1457 1454 1451 1448 1447 1445 1445 1443 1442 1443 1443 1443 1444 1445 1447 1450 1451 1453 1455 1457 1459 1460 1461 1462 1463
1501 1498 1497 1496 1495 1494 1493 1491 1489 1486 1484 1481 1478 1474 1471 1468 1464 1461 1457 1454 1451 1448 1445 1442 1441 1440 1439 1438 1438 1438 1437 1438 1439 1441 1443 1445 1448 1450 1451 1453 1454 1456 1457 1458
1500 1497 1495 1494 1494 1493 1491 1489 1487 1484 1482 1479 1476 1472 1469 1465 1462 1458 1455 1452 1448 1445 1442 1439 1436 1435 1434 1433 1432 1431 1431 1432 1433 1435 1436 1439 1441 1443 1445 1447 1449 1450 1452 1453
1498 1494 1495 1493 1492 1490 1488 1486 1484 1481 1478 1475 1473 1470 1466 1462 1459 1456 1452 1448 1445 1441 1437 1434 1431 1429 1428 1427 1426 1425 1425 1426 1427 1428 1430 1432 1434 1436 1438 1441 1443 1445 1447 1449
1491 1491 1491 1490 1489 1487 1485 1483 1481 1478 1475 1472 1469 1466 1463 1459 1455 1452 1448 1445 1441 1437 1433 1430 1426 1424 1422 1421 1420 1419 1418 1419 1420 1421 1423 1424 1426 1429 1431 1434 1437 1439 1441 1443
1488 1488 1488 1487 1486 1484 1482 1480 1477 1475 1472 1469 1466 1462 1459 1455 1451 1448 1444 1440 1437 1433 1429 1425 1421 1418 1416 1414 1413 1411 1411 1412 1412 1413 1415 1417 1419 1421 1424 1427 1429 1432 1435 1437
1485 1485 1485 1483 1482 1480 1478 1476 1473 1470 1467 1464 1461 1458 1455 1451 1447 1443 1439 1436 1431 1427 1423 1419 1415 1412 1410 1408 1406 1404 1404 1404 1404 1405 1407 1409 1411 1414 1417 1420 1422 1425 1428 1431
1482 1482 1481 1479 1478 1476 1474 1471 1469 1466 1463 1460 1457 1454 1450 1447 1442 1438 1435 1431 1426 1421 1417 1413 1409 1406 1404 1401 1399 1397 1396 1396 1397 1398 1399 1401 1403 1406 1408 1412 1415 1418 1421 1424
1478 1477 1476 1475 1473 1472 1470 1467 1465 1462 1459 1456 1452 1448 1445 1441 1436 1432 1428 1425 1421 1416 1412 1408 1404 1400 1397 1394 1392 1390 1388 1388 1389 1389 1391 1393 1395 1397 1400 1404 1407 1410 1414 1418
1474 1473 1472 1471 1469 1467 1465 1463 1460 1457 1454 1451 1447 1443 1439 1435 1430 1426 1422 1418 1413 1409 1405 1402 1398 1393 1390 1387 1385 1383 1381 1380 1380 1381 1382 1384 1386 1389 1392 1396 1399 1403 1407 1411
1470 1469 1468 1467 1465 1463 1460 1458 1455 1452 1449 1445 1442 1437 1433 1429 1425 1420 1416 1411 1407 1402 1397 1394 1390 1387 1383 1380 1378 1375 1374 1373 1373 1373 1374 1376 1379 1382 1384 1388 1392 1396 1400 1404
1466 1465 1463 1462 1460 1458 1455 1452 1449 1446 1443 1439 1435 1431 1427 1423 1419 1414 1409 1405 1401 1397 1392 1388 1383 1380 1376 1373 1371 1368 1366 1366 1365 1366 1367 1368 1370 1373 1377 1380 1384 1388 1392 1396
1462 1460 1458 1456 1454 1452 1450 1447 1443 1440 1436 1433 1429 1425 1421 1416 1412 1408 1403 1397 1394 1390 1385 1381 1377 1373 1369 1366 1363 1361 1359 1358 1358 1358 1359 1361 1363 1365 1369 1373 1376 1380 1385 1390
1457 1455 1453 1451 1449 1446 1443 1440 1437 1433 1430 1426 1422 1418 1414 1409 1405 1401 1397 1392 1387 1383 1378 1373 1369 1365 1362 1359 1356 1354 1352 1351 1351 1351 1352 1354 1355 1358 1361 1365 1369 1373 1378 1383
1451 1449 1447 1445 1443 1440 1437 1434 1430 1427 1423 1419 1415 1411 1407 1403 1399 1394 1389 1385 1381 1376 1372 1367 1362 1358 1355 1351 1348 1346 1344 1343 1343 1344 1345 1346 1348 1351 1354 1358 1362 1367 1372 1377
1446 1443 1441 1439 1437 1434 1430 1427 1424 1420 1417 1412 1409 1405 1401 1396 1391 1388 1383 1378 1374 1369 1364 1360 1355 1351 1347 1344 1341 1339 1337 1336 1335 1336 1338 1339 1342 1344 1347 1351 1356 1361 1366 1371
1439 1437 1435 1432 1430 1427 1424 1420 1417 1413 1410 1406 1402 1398 1394 1390 1386 1381 1376 1372 1367 1362 1357 1353 1349 1344 1341 1337 1334 1332 1330 1329 1329 1329 1331 1333 1335 1338 1342 1345 1350 1355 1360 1366
1433 1431 1428 1426 1423 1421 1418 1414 1411 1407 1403 1399 1394 1391 1387 1383 1379 1375 1370 1366 1361 1356 1352 1347 1342 1338 1334 1331 1328 1326 1324 1323 1323 1324 1325 1327 1330 1333 1337 1340 1345 1350 1355 1361
1426 1424 1422 1419 1417 1414 1412 1408 1405 1401 1398 1394 1389 1385 1381 1377 1373 1369 1365 1360 1355 1351 1346 1342 1338 1334 1330 1326 1323 1321 1320 1319 1318 1319 1321 1323 1326 1329 1333 1337 1341 1346 1351 1356